Location: Brno
(49.2000°N, 16.6330°E)
Time: 09:55:52
(UTC+02:00)

ISS - Pass Details

Date: 26 May 2021
Orbit: 417 x 422 km, 51.6° (Epoch: 13 June)

Event Time Altitude Azimuth Distance (km) Brightness Sun altitude
Rises 21:25:07 0° 286° (WNW) 2,366 1.3 -6.1°
Reaches altitude 10° 21:27:14 10° 289° (WNW) 1,502 0.3 -6.3°
Maximum altitude 21:30:35 67° 12° (NNE) 460 -3.4 -6.7°
Drops below altitude 10° 21:33:57 10° 96° (E) 1,501 -1.4 -7.1°
Enters shadow 21:34:55 - 98° (E) 1,898 -0.9 -7.2°
